Year,Month,Day,Hour,Minute,Value (Times are PST for temperature in C)
2007,07,12,00,00,22.60
2007,07,12,00,01,22.60
2007,07,12,00,02,22.60
2007,07,12,00,03,22.60
2007,07,12,00,04,22.60
2007,07,12,00,05,22.60
2007,07,12,00,06,22.60
2007,07,12,00,07,22.60
2007,07,12,00,08,22.60
2007,07,12,00,09,22.60
2007,07,12,00,10,22.60
2007,07,12,00,11,22.60
2007,07,12,00,12,22.60
2007,07,12,00,13,22.60
2007,07,12,00,14,22.60
2007,07,12,00,15,22.50
2007,07,12,00,16,22.40
2007,07,12,00,17,22.40
2007,07,12,00,18,22.30
2007,07,12,00,19,22.20
2007,07,12,00,20,22.20
2007,07,12,00,21,22.20
2007,07,12,00,22,22.10
2007,07,12,00,23,22.10
2007,07,12,00,24,22.10
2007,07,12,00,25,22.10
2007,07,12,00,26,22.10
2007,07,12,00,27,22.10
2007,07,12,00,28,22.10
2007,07,12,00,29,22.10
2007,07,12,00,30,22.10
2007,07,12,00,31,22.10
2007,07,12,00,32,22.10
2007,07,12,00,33,22.10
2007,07,12,00,34,22.10
2007,07,12,00,35,22.10
2007,07,12,00,36,22.00
2007,07,12,00,37,22.00
2007,07,12,00,38,21.90
2007,07,12,00,39,21.80
2007,07,12,00,40,21.80
2007,07,12,00,41,21.80
2007,07,12,00,42,21.80
2007,07,12,00,43,21.70
2007,07,12,00,44,21.70
2007,07,12,00,45,21.70
2007,07,12,00,46,21.70
2007,07,12,00,47,21.80
2007,07,12,00,48,21.80
2007,07,12,00,49,21.80
2007,07,12,00,50,21.80
2007,07,12,00,51,21.80
2007,07,12,00,52,21.80
2007,07,12,00,53,21.80
2007,07,12,00,54,21.70
2007,07,12,00,55,21.70
2007,07,12,00,56,21.70
2007,07,12,00,57,21.60
2007,07,12,00,58,21.60
2007,07,12,00,59,21.50
2007,07,12,01,00,21.50
2007,07,12,01,01,21.40
2007,07,12,01,02,21.40
2007,07,12,01,03,21.40
2007,07,12,01,04,21.40
2007,07,12,01,05,21.30
2007,07,12,01,06,21.30
2007,07,12,01,07,21.30
2007,07,12,01,08,21.20
2007,07,12,01,09,21.20
2007,07,12,01,10,21.20
2007,07,12,01,11,21.20
2007,07,12,01,12,21.20
2007,07,12,01,13,21.20
2007,07,12,01,14,21.20
2007,07,12,01,15,21.10
2007,07,12,01,16,21.10
2007,07,12,01,17,21.10
2007,07,12,01,18,21.10
2007,07,12,01,19,21.10
2007,07,12,01,20,21.10
2007,07,12,01,21,21.20
2007,07,12,01,22,21.20
2007,07,12,01,23,21.20
2007,07,12,01,24,21.20
2007,07,12,01,25,21.20
2007,07,12,01,26,21.10
2007,07,12,01,27,21.10
2007,07,12,01,28,21.10
2007,07,12,01,29,21.10
2007,07,12,01,30,21.10
2007,07,12,01,31,21.20
2007,07,12,01,32,21.20
2007,07,12,01,33,21.30
2007,07,12,01,34,21.30
2007,07,12,01,35,21.30
2007,07,12,01,36,21.30
2007,07,12,01,37,21.30
2007,07,12,01,38,21.30
2007,07,12,01,39,21.30
2007,07,12,01,40,21.20
2007,07,12,01,41,21.20
2007,07,12,01,42,21.10
2007,07,12,01,43,21.10
2007,07,12,01,44,21.10
2007,07,12,01,45,21.10
2007,07,12,01,46,21.10
2007,07,12,01,47,21.10
2007,07,12,01,48,21.20
2007,07,12,01,49,21.30
2007,07,12,01,50,21.40
2007,07,12,01,51,21.50
2007,07,12,01,52,21.50
2007,07,12,01,53,21.60
2007,07,12,01,54,21.70
2007,07,12,01,55,21.70
2007,07,12,01,56,21.80
2007,07,12,01,57,21.80
2007,07,12,01,58,21.80
2007,07,12,01,59,21.90
2007,07,12,02,00,22.00
2007,07,12,02,01,22.00
2007,07,12,02,02,22.10
2007,07,12,02,03,22.10
2007,07,12,02,04,22.10
2007,07,12,02,05,22.10
2007,07,12,02,06,22.10
2007,07,12,02,07,22.00
2007,07,12,02,08,22.00
2007,07,12,02,09,21.90
2007,07,12,02,10,21.90
2007,07,12,02,11,21.80
2007,07,12,02,12,21.80
2007,07,12,02,13,21.70
2007,07,12,02,14,21.60
2007,07,12,02,15,21.50
2007,07,12,02,16,21.40
2007,07,12,02,17,21.20
2007,07,12,02,18,21.10
2007,07,12,02,19,21.00
2007,07,12,02,20,20.90
2007,07,12,02,21,20.90
2007,07,12,02,22,20.80
2007,07,12,02,23,20.80
2007,07,12,02,24,20.70
2007,07,12,02,25,20.60
2007,07,12,02,26,20.60
2007,07,12,02,27,20.60
2007,07,12,02,28,20.60
2007,07,12,02,29,20.60
2007,07,12,02,30,20.50
2007,07,12,02,31,20.50
2007,07,12,02,32,20.40
2007,07,12,02,33,20.40
2007,07,12,02,34,20.30
2007,07,12,02,35,20.30
2007,07,12,02,36,20.30
2007,07,12,02,37,20.20
2007,07,12,02,38,20.20
2007,07,12,02,39,20.20
2007,07,12,02,40,20.20
2007,07,12,02,41,20.20
2007,07,12,02,42,20.10
2007,07,12,02,43,20.10
2007,07,12,02,44,20.10
2007,07,12,02,45,20.00
2007,07,12,02,46,20.00
2007,07,12,02,47,20.00
2007,07,12,02,48,20.00
2007,07,12,02,49,20.00
2007,07,12,02,50,19.90
2007,07,12,02,51,19.90
2007,07,12,02,52,19.90
2007,07,12,02,53,19.90
2007,07,12,02,54,19.80
2007,07,12,02,55,19.80
2007,07,12,02,56,19.80
2007,07,12,02,57,19.80
2007,07,12,02,58,19.70
2007,07,12,02,59,19.70
2007,07,12,03,00,19.70
2007,07,12,03,01,19.70
2007,07,12,03,02,19.70
2007,07,12,03,03,19.60
2007,07,12,03,04,19.60
2007,07,12,03,05,19.60
2007,07,12,03,06,19.60
2007,07,12,03,07,19.50
2007,07,12,03,08,19.50
2007,07,12,03,09,19.50
2007,07,12,03,10,19.50
2007,07,12,03,11,19.40
2007,07,12,03,12,19.40
2007,07,12,03,13,19.40
2007,07,12,03,14,19.30
2007,07,12,03,15,19.30
2007,07,12,03,16,19.30
2007,07,12,03,17,19.30
2007,07,12,03,18,19.30
2007,07,12,03,19,19.30
2007,07,12,03,20,19.30
2007,07,12,03,21,19.20
2007,07,12,03,22,19.20
2007,07,12,03,23,19.20
2007,07,12,03,24,19.10
2007,07,12,03,25,19.10
2007,07,12,03,26,19.10
2007,07,12,03,27,19.10
2007,07,12,03,28,19.10
2007,07,12,03,29,19.10
2007,07,12,03,30,19.10
2007,07,12,03,31,19.00
2007,07,12,03,32,19.00
2007,07,12,03,33,19.00
2007,07,12,03,34,18.90
2007,07,12,03,35,18.90
2007,07,12,03,36,18.90
2007,07,12,03,37,18.90
2007,07,12,03,38,18.90
2007,07,12,03,39,18.90
2007,07,12,03,40,18.80
2007,07,12,03,41,18.80
2007,07,12,03,42,18.80
2007,07,12,03,43,18.70
2007,07,12,03,44,18.70
2007,07,12,03,45,18.70
2007,07,12,03,46,18.70
2007,07,12,03,47,18.70
2007,07,12,03,48,18.70
2007,07,12,03,49,18.70
2007,07,12,03,50,18.70
2007,07,12,03,51,18.70
2007,07,12,03,52,18.70
2007,07,12,03,53,18.70
2007,07,12,03,54,18.70
2007,07,12,03,55,18.70
2007,07,12,03,56,18.70
2007,07,12,03,57,18.70
2007,07,12,03,58,18.70
2007,07,12,03,59,18.70
2007,07,12,04,00,18.70
2007,07,12,04,01,18.70
2007,07,12,04,02,18.70
2007,07,12,04,03,18.60
2007,07,12,04,04,18.60
2007,07,12,04,05,18.50
2007,07,12,04,06,18.50
2007,07,12,04,07,18.40
2007,07,12,04,08,18.30
2007,07,12,04,09,18.20
2007,07,12,04,10,18.20
2007,07,12,04,11,18.20
2007,07,12,04,12,18.10
2007,07,12,04,13,18.10
2007,07,12,04,14,18.10
2007,07,12,04,15,18.20
2007,07,12,04,16,18.20
2007,07,12,04,17,18.20
2007,07,12,04,18,18.20
2007,07,12,04,19,18.20
2007,07,12,04,20,18.20
2007,07,12,04,21,18.10
2007,07,12,04,22,18.20
2007,07,12,04,23,18.20
2007,07,12,04,24,18.20
2007,07,12,04,25,18.20
2007,07,12,04,26,18.30
2007,07,12,04,27,18.30
2007,07,12,04,28,18.20
2007,07,12,04,29,18.20
2007,07,12,04,30,18.20
2007,07,12,04,31,18.20
2007,07,12,04,32,18.20
2007,07,12,04,33,18.20
2007,07,12,04,34,18.20
2007,07,12,04,35,18.20
2007,07,12,04,36,18.20
2007,07,12,04,37,18.10
2007,07,12,04,38,18.10
2007,07,12,04,39,18.10
2007,07,12,04,40,18.10
2007,07,12,04,41,18.10
2007,07,12,04,42,18.10
2007,07,12,04,43,18.10
2007,07,12,04,44,18.10
2007,07,12,04,45,18.10
2007,07,12,04,46,18.20
2007,07,12,04,47,18.20
2007,07,12,04,48,18.10
2007,07,12,04,49,18.10
2007,07,12,04,50,18.00
2007,07,12,04,51,18.00
2007,07,12,04,52,17.90
2007,07,12,04,53,17.90
2007,07,12,04,54,17.90
2007,07,12,04,55,17.80
2007,07,12,04,56,17.80
2007,07,12,04,57,17.80
2007,07,12,04,58,17.80
2007,07,12,04,59,17.80
2007,07,12,05,00,17.70
2007,07,12,05,01,17.70
2007,07,12,05,02,17.80
2007,07,12,05,03,17.80
2007,07,12,05,04,17.80
2007,07,12,05,05,17.80
2007,07,12,05,06,17.80
2007,07,12,05,07,17.80
2007,07,12,05,08,17.80
2007,07,12,05,09,17.80
2007,07,12,05,10,17.70
2007,07,12,05,11,17.70
2007,07,12,05,12,17.70
2007,07,12,05,13,17.80
2007,07,12,05,14,17.80
2007,07,12,05,15,17.80
2007,07,12,05,16,17.80
2007,07,12,05,17,17.80
2007,07,12,05,18,17.70
2007,07,12,05,19,17.70
2007,07,12,05,20,17.70
2007,07,12,05,21,17.70
2007,07,12,05,22,17.70
2007,07,12,05,23,17.70
2007,07,12,05,24,17.70
2007,07,12,05,25,17.70
2007,07,12,05,26,17.60
2007,07,12,05,27,17.60
2007,07,12,05,28,17.50
2007,07,12,05,29,17.40
2007,07,12,05,30,17.30
2007,07,12,05,31,17.20
2007,07,12,05,32,17.10
2007,07,12,05,33,17.00
2007,07,12,05,34,17.00
2007,07,12,05,35,16.90
2007,07,12,05,36,16.90
2007,07,12,05,37,16.80
2007,07,12,05,38,16.80
2007,07,12,05,39,16.70
2007,07,12,05,40,16.60
2007,07,12,05,41,16.60
2007,07,12,05,42,16.50
2007,07,12,05,43,16.50
2007,07,12,05,44,16.40
2007,07,12,05,45,16.40
2007,07,12,05,46,16.30
2007,07,12,05,47,16.30
2007,07,12,05,48,16.20
2007,07,12,05,49,16.30
2007,07,12,05,50,16.30
2007,07,12,05,51,16.40
2007,07,12,05,52,16.50
2007,07,12,05,53,16.50
2007,07,12,05,54,16.60
2007,07,12,05,55,16.60
2007,07,12,05,56,16.60
2007,07,12,05,57,16.60
2007,07,12,05,58,16.60
2007,07,12,05,59,16.60
2007,07,12,06,00,16.60
2007,07,12,06,01,16.60
2007,07,12,06,02,16.60
2007,07,12,06,03,16.50
2007,07,12,06,04,16.50
2007,07,12,06,05,16.50
2007,07,12,06,06,16.50
2007,07,12,06,07,16.40
2007,07,12,06,08,16.50
2007,07,12,06,09,16.60
2007,07,12,06,10,16.60
2007,07,12,06,11,16.70
2007,07,12,06,12,16.70
2007,07,12,06,13,16.70
2007,07,12,06,14,16.80
2007,07,12,06,15,16.80
2007,07,12,06,16,16.90
2007,07,12,06,17,16.90
2007,07,12,06,18,17.00
2007,07,12,06,19,17.10
2007,07,12,06,20,17.20
2007,07,12,06,21,17.30
2007,07,12,06,22,17.40
2007,07,12,06,23,17.50
2007,07,12,06,24,17.50
2007,07,12,06,25,17.40
2007,07,12,06,26,17.40
2007,07,12,06,27,17.40
2007,07,12,06,28,17.30
2007,07,12,06,29,17.40
2007,07,12,06,30,17.40
2007,07,12,06,31,17.50
2007,07,12,06,32,17.50
2007,07,12,06,33,17.60
2007,07,12,06,34,17.70
2007,07,12,06,35,17.70
2007,07,12,06,36,17.80
2007,07,12,06,37,17.80
2007,07,12,06,38,17.90
2007,07,12,06,39,17.90
2007,07,12,06,40,18.00
2007,07,12,06,41,18.00
2007,07,12,06,42,18.00
2007,07,12,06,43,18.00
2007,07,12,06,44,18.00
2007,07,12,06,45,18.00
2007,07,12,06,46,18.00
2007,07,12,06,47,18.00
2007,07,12,06,48,18.10
2007,07,12,06,49,18.10
2007,07,12,06,50,18.20
2007,07,12,06,51,18.20
2007,07,12,06,52,18.20
2007,07,12,06,53,18.20
2007,07,12,06,54,18.20
2007,07,12,06,55,18.20
2007,07,12,06,56,18.20
2007,07,12,06,57,18.20
2007,07,12,06,58,18.20
2007,07,12,06,59,18.30
2007,07,12,07,00,18.30
2007,07,12,07,01,18.30
2007,07,12,07,02,18.30
2007,07,12,07,03,18.40
2007,07,12,07,04,18.40
2007,07,12,07,05,18.40
2007,07,12,07,06,18.50
2007,07,12,07,07,18.50
2007,07,12,07,08,18.50
2007,07,12,07,09,18.50
2007,07,12,07,10,18.50
2007,07,12,07,11,18.50
2007,07,12,07,12,18.40
2007,07,12,07,13,18.30
2007,07,12,07,14,18.20
2007,07,12,07,15,18.20
2007,07,12,07,16,18.20
2007,07,12,07,17,18.10
2007,07,12,07,18,18.10
2007,07,12,07,19,18.10
2007,07,12,07,20,18.10
2007,07,12,07,21,18.10
2007,07,12,07,22,18.10
2007,07,12,07,23,18.10
2007,07,12,07,24,18.10
2007,07,12,07,25,18.20
2007,07,12,07,26,18.20
2007,07,12,07,27,18.30
2007,07,12,07,28,18.30
2007,07,12,07,29,18.40
2007,07,12,07,30,18.40
2007,07,12,07,31,18.50
2007,07,12,07,32,18.50
2007,07,12,07,33,18.60
2007,07,12,07,34,18.60
2007,07,12,07,35,18.60
2007,07,12,07,36,18.70
2007,07,12,07,37,18.70
2007,07,12,07,38,18.70
2007,07,12,07,39,18.70
2007,07,12,07,40,18.70
2007,07,12,07,41,18.70
2007,07,12,07,42,18.70
2007,07,12,07,43,18.80
2007,07,12,07,44,18.80
2007,07,12,07,45,18.90
2007,07,12,07,46,19.00
2007,07,12,07,47,19.10
2007,07,12,07,48,19.10
2007,07,12,07,49,19.20
2007,07,12,07,50,19.20
2007,07,12,07,51,19.20
2007,07,12,07,52,19.30
2007,07,12,07,53,19.30
2007,07,12,07,54,19.30
2007,07,12,07,55,19.30
2007,07,12,07,56,19.30
2007,07,12,07,57,19.30
2007,07,12,07,58,19.30
2007,07,12,07,59,19.30
2007,07,12,08,00,19.40
2007,07,12,08,01,19.40
2007,07,12,08,02,19.50
2007,07,12,08,03,19.50
2007,07,12,08,04,19.50
2007,07,12,08,05,19.40
2007,07,12,08,06,19.30
2007,07,12,08,07,19.30
2007,07,12,08,08,19.20
2007,07,12,08,09,19.10
2007,07,12,08,10,19.10
2007,07,12,08,11,19.00
2007,07,12,08,12,19.00
2007,07,12,08,13,19.00
2007,07,12,08,14,19.10
2007,07,12,08,15,19.20
2007,07,12,08,16,19.30
2007,07,12,08,17,19.50
2007,07,12,08,18,19.60
2007,07,12,08,19,19.70
2007,07,12,08,20,19.80
2007,07,12,08,21,19.90
2007,07,12,08,22,20.00
2007,07,12,08,23,20.10
2007,07,12,08,24,20.20
2007,07,12,08,25,20.20
2007,07,12,08,26,20.20
2007,07,12,08,27,20.20
2007,07,12,08,28,20.10
2007,07,12,08,29,20.20
2007,07,12,08,30,20.20
2007,07,12,08,31,20.20
2007,07,12,08,32,20.30
2007,07,12,08,33,20.30
2007,07,12,08,34,20.30
2007,07,12,08,35,20.30
2007,07,12,08,36,20.20
2007,07,12,08,37,20.20
2007,07,12,08,38,20.10
2007,07,12,08,39,20.10
2007,07,12,08,40,20.10
2007,07,12,08,41,20.20
2007,07,12,08,42,20.30
2007,07,12,08,43,20.30
2007,07,12,08,44,20.40
2007,07,12,08,45,20.50
2007,07,12,08,46,20.60
2007,07,12,08,47,20.70
2007,07,12,08,48,20.70
2007,07,12,08,49,20.80
2007,07,12,08,50,20.80
2007,07,12,08,51,20.90
2007,07,12,08,52,20.90
2007,07,12,08,53,20.80
2007,07,12,08,54,20.80
2007,07,12,08,55,20.80
2007,07,12,08,56,20.60
2007,07,12,08,57,20.50
2007,07,12,08,58,20.50
2007,07,12,08,59,20.40
2007,07,12,09,00,20.30
2007,07,12,09,01,20.20
2007,07,12,09,02,20.10
2007,07,12,09,03,20.00
2007,07,12,09,04,19.90
2007,07,12,09,05,19.90
2007,07,12,09,06,20.00
2007,07,12,09,07,20.00
2007,07,12,09,08,19.90
2007,07,12,09,09,19.80
2007,07,12,09,10,19.80
2007,07,12,09,11,19.90
2007,07,12,09,12,19.80
2007,07,12,09,13,19.80
2007,07,12,09,14,19.70
2007,07,12,09,15,19.70
2007,07,12,09,16,19.60
2007,07,12,09,17,19.60
2007,07,12,09,18,19.70
2007,07,12,09,19,19.80
2007,07,12,09,20,19.80
2007,07,12,09,21,19.80
2007,07,12,09,22,19.90
2007,07,12,09,23,20.00
2007,07,12,09,24,20.20
2007,07,12,09,25,20.30
2007,07,12,09,26,20.30
2007,07,12,09,27,20.30
2007,07,12,09,28,20.30
2007,07,12,09,29,20.30
2007,07,12,09,30,20.20
2007,07,12,09,31,20.10
2007,07,12,09,32,20.00
2007,07,12,09,33,19.90
2007,07,12,09,34,19.90
2007,07,12,09,35,20.00
2007,07,12,09,36,20.10
2007,07,12,09,37,20.20
2007,07,12,09,38,20.40
2007,07,12,09,39,20.60
2007,07,12,09,40,20.70
2007,07,12,09,41,20.80
2007,07,12,09,42,20.80
2007,07,12,09,43,20.90
2007,07,12,09,44,20.80
2007,07,12,09,45,20.70
2007,07,12,09,46,20.60
2007,07,12,09,47,20.50
2007,07,12,09,48,20.40
2007,07,12,09,49,20.40
2007,07,12,09,50,20.30
2007,07,12,09,51,20.30
2007,07,12,09,52,20.30
2007,07,12,09,53,20.20
2007,07,12,09,54,20.10
2007,07,12,09,55,20.00
2007,07,12,09,56,19.90
2007,07,12,09,57,19.80
2007,07,12,09,58,19.70
2007,07,12,09,59,19.60
2007,07,12,10,00,19.60
2007,07,12,10,01,19.60
2007,07,12,10,02,19.70
2007,07,12,10,03,19.70
2007,07,12,10,04,19.80
2007,07,12,10,05,19.90
2007,07,12,10,06,20.10
2007,07,12,10,07,20.20
2007,07,12,10,08,20.10
2007,07,12,10,09,20.00
2007,07,12,10,10,19.90
2007,07,12,10,11,19.80
2007,07,12,10,12,19.80
2007,07,12,10,13,19.70
2007,07,12,10,14,19.60
2007,07,12,10,15,19.50
2007,07,12,10,16,19.50
2007,07,12,10,17,19.60
2007,07,12,10,18,19.60
2007,07,12,10,19,19.50
2007,07,12,10,20,19.40
2007,07,12,10,21,19.40
2007,07,12,10,22,19.30
2007,07,12,10,23,19.30
2007,07,12,10,24,19.40
2007,07,12,10,25,19.50
2007,07,12,10,26,19.60
2007,07,12,10,27,19.80
2007,07,12,10,28,19.90
2007,07,12,10,29,20.00
2007,07,12,10,30,20.10
2007,07,12,10,31,20.20
2007,07,12,10,32,20.20
2007,07,12,10,33,20.20
2007,07,12,10,34,20.20
2007,07,12,10,35,20.30
2007,07,12,10,36,20.30
2007,07,12,10,37,20.40
2007,07,12,10,38,20.50
2007,07,12,10,39,20.70
2007,07,12,10,40,20.80
2007,07,12,10,41,20.80
2007,07,12,10,42,20.90
2007,07,12,10,43,21.00
2007,07,12,10,44,21.00
2007,07,12,10,45,20.90
2007,07,12,10,46,20.90
2007,07,12,10,47,20.90
2007,07,12,10,48,20.90
2007,07,12,10,49,20.80
2007,07,12,10,50,20.80
2007,07,12,10,51,20.70
2007,07,12,10,52,20.70
2007,07,12,10,53,20.70
2007,07,12,10,54,20.60
2007,07,12,10,55,20.40
2007,07,12,10,56,20.40
2007,07,12,10,57,20.40
2007,07,12,10,58,20.40
2007,07,12,10,59,20.40
2007,07,12,11,00,20.60
2007,07,12,11,01,20.70
2007,07,12,11,02,20.70
2007,07,12,11,03,20.80
2007,07,12,11,04,20.80
2007,07,12,11,05,20.90
2007,07,12,11,06,20.90
2007,07,12,11,07,20.90
2007,07,12,11,08,20.90
2007,07,12,11,09,21.00
2007,07,12,11,10,21.10
2007,07,12,11,11,21.20
2007,07,12,11,12,21.40
2007,07,12,11,13,21.50
2007,07,12,11,14,21.60
2007,07,12,11,15,21.70
2007,07,12,11,16,21.80
2007,07,12,11,17,21.90
2007,07,12,11,18,22.10
2007,07,12,11,19,22.10
2007,07,12,11,20,22.20
2007,07,12,11,21,22.20
2007,07,12,11,22,22.30
2007,07,12,11,23,22.30
2007,07,12,11,24,22.30
2007,07,12,11,25,22.40
2007,07,12,11,26,22.40
2007,07,12,11,27,22.40
2007,07,12,11,28,22.30
2007,07,12,11,29,22.10
2007,07,12,11,30,22.00
2007,07,12,11,31,22.00
2007,07,12,11,32,22.00
2007,07,12,11,33,22.10
2007,07,12,11,34,22.00
2007,07,12,11,35,22.00
2007,07,12,11,36,21.90
2007,07,12,11,37,21.90
2007,07,12,11,38,21.90
2007,07,12,11,39,22.00
2007,07,12,11,40,22.10
2007,07,12,11,41,22.20
2007,07,12,11,42,22.30
2007,07,12,11,43,22.30
2007,07,12,11,44,22.30
2007,07,12,11,45,22.30
2007,07,12,11,46,22.20
2007,07,12,11,47,22.10
2007,07,12,11,48,21.90
2007,07,12,11,49,21.80
2007,07,12,11,50,21.90
2007,07,12,11,51,22.00
2007,07,12,11,52,22.00
2007,07,12,11,53,22.10
2007,07,12,11,54,22.30
2007,07,12,11,55,22.40
2007,07,12,11,56,22.60
2007,07,12,11,57,22.70
2007,07,12,11,58,22.80
2007,07,12,11,59,22.90
2007,07,12,12,00,23.00
2007,07,12,12,01,23.10
2007,07,12,12,02,23.10
2007,07,12,12,03,22.90
2007,07,12,12,04,22.80
2007,07,12,12,05,22.70
2007,07,12,12,06,22.70
2007,07,12,12,07,22.70
2007,07,12,12,08,22.70
2007,07,12,12,09,22.70
2007,07,12,12,10,22.60
2007,07,12,12,11,22.60
2007,07,12,12,12,22.50
2007,07,12,12,13,22.60
2007,07,12,12,14,22.50
2007,07,12,12,15,22.40
2007,07,12,12,16,22.30
2007,07,12,12,17,22.20
2007,07,12,12,18,22.20
2007,07,12,12,19,22.20
2007,07,12,12,20,22.00
2007,07,12,12,21,22.00
2007,07,12,12,22,22.00
2007,07,12,12,23,22.10
2007,07,12,12,24,22.20
2007,07,12,12,25,22.30
2007,07,12,12,26,22.30
2007,07,12,12,27,22.30
2007,07,12,12,28,22.20
2007,07,12,12,29,22.20
2007,07,12,12,30,22.20
2007,07,12,12,31,22.20
2007,07,12,12,32,22.20
2007,07,12,12,33,22.20
2007,07,12,12,34,22.30
2007,07,12,12,35,22.30
2007,07,12,12,36,22.40
2007,07,12,12,37,22.60
2007,07,12,12,38,22.80
2007,07,12,12,39,22.90
2007,07,12,12,40,23.00
2007,07,12,12,41,22.90
2007,07,12,12,42,22.90
2007,07,12,12,43,22.90
2007,07,12,12,44,22.80
2007,07,12,12,45,22.80
2007,07,12,12,46,22.90
2007,07,12,12,47,23.00
2007,07,12,12,48,23.10
2007,07,12,12,49,23.20
2007,07,12,12,50,23.30
2007,07,12,12,51,23.30
2007,07,12,12,52,23.40
2007,07,12,12,53,23.40
2007,07,12,12,54,23.40
2007,07,12,12,55,23.40
2007,07,12,12,56,23.40
2007,07,12,12,57,23.40
2007,07,12,12,58,23.30
2007,07,12,12,59,23.20
2007,07,12,13,00,23.20
2007,07,12,13,01,23.10
2007,07,12,13,02,22.90
2007,07,12,13,03,22.80
2007,07,12,13,04,22.70
2007,07,12,13,05,22.70
2007,07,12,13,06,22.60
2007,07,12,13,07,22.60
2007,07,12,13,08,22.70
2007,07,12,13,09,22.80
2007,07,12,13,10,22.80
2007,07,12,13,11,22.80
2007,07,12,13,12,22.80
2007,07,12,13,13,22.80
2007,07,12,13,14,22.80
2007,07,12,13,15,22.90
2007,07,12,13,16,23.00
2007,07,12,13,17,23.10
2007,07,12,13,18,23.10
2007,07,12,13,19,23.20
2007,07,12,13,20,23.30
2007,07,12,13,21,23.50
2007,07,12,13,22,23.70
2007,07,12,13,23,23.80
2007,07,12,13,24,23.90
2007,07,12,13,25,23.90
2007,07,12,13,26,24.00
2007,07,12,13,27,24.20
2007,07,12,13,28,24.30
2007,07,12,13,29,24.30
2007,07,12,13,30,24.20
2007,07,12,13,31,24.30
2007,07,12,13,32,24.40
2007,07,12,13,33,24.60
2007,07,12,13,34,24.60
2007,07,12,13,35,24.70
2007,07,12,13,36,24.60
2007,07,12,13,37,24.50
2007,07,12,13,38,24.30
2007,07,12,13,39,24.20
2007,07,12,13,40,24.10
2007,07,12,13,41,24.00
2007,07,12,13,42,23.80
2007,07,12,13,43,23.60
2007,07,12,13,44,23.50
2007,07,12,13,45,23.50
2007,07,12,13,46,23.30
2007,07,12,13,47,23.20
2007,07,12,13,48,23.10
2007,07,12,13,49,23.10
2007,07,12,13,50,22.90
2007,07,12,13,51,22.60
2007,07,12,13,52,22.30
2007,07,12,13,53,22.10
2007,07,12,13,54,22.10
2007,07,12,13,55,22.10
2007,07,12,13,56,22.10
2007,07,12,13,57,22.10
2007,07,12,13,58,22.10
2007,07,12,13,59,22.10
2007,07,12,14,00,22.10
2007,07,12,14,01,22.20
2007,07,12,14,02,22.20
2007,07,12,14,03,22.20
2007,07,12,14,04,22.30
2007,07,12,14,05,22.30
2007,07,12,14,06,22.40
2007,07,12,14,07,22.40
2007,07,12,14,08,22.40
2007,07,12,14,09,22.30
2007,07,12,14,10,22.20
2007,07,12,14,11,22.10
2007,07,12,14,12,22.10
2007,07,12,14,13,22.00
2007,07,12,14,14,22.00
2007,07,12,14,15,21.90
2007,07,12,14,16,21.90
2007,07,12,14,17,21.90
2007,07,12,14,18,21.90
2007,07,12,14,19,21.90
2007,07,12,14,20,21.90
2007,07,12,14,21,22.00
2007,07,12,14,22,22.10
2007,07,12,14,23,22.20
2007,07,12,14,24,22.30
2007,07,12,14,25,22.40
2007,07,12,14,26,22.40
2007,07,12,14,27,22.40
2007,07,12,14,28,22.30
2007,07,12,14,29,22.30
2007,07,12,14,30,22.30
2007,07,12,14,31,22.40
2007,07,12,14,32,22.40
2007,07,12,14,33,22.40
2007,07,12,14,34,22.50
2007,07,12,14,35,22.50
2007,07,12,14,36,22.40
2007,07,12,14,37,22.40
2007,07,12,14,38,22.30
2007,07,12,14,39,22.30
2007,07,12,14,40,22.30
2007,07,12,14,41,22.30
2007,07,12,14,42,22.30
2007,07,12,14,43,22.30
2007,07,12,14,44,22.30
2007,07,12,14,45,22.30
2007,07,12,14,46,22.40
2007,07,12,14,47,22.50
2007,07,12,14,48,22.50
2007,07,12,14,49,22.60
2007,07,12,14,50,22.50
2007,07,12,14,51,22.50
2007,07,12,14,52,22.50
2007,07,12,14,53,22.50
2007,07,12,14,54,22.40
2007,07,12,14,55,22.50
2007,07,12,14,56,22.50
2007,07,12,14,57,22.50
2007,07,12,14,58,22.50
2007,07,12,14,59,22.40
2007,07,12,15,00,22.40
2007,07,12,15,01,22.30
2007,07,12,15,02,22.30
2007,07,12,15,03,22.30
2007,07,12,15,04,22.20
2007,07,12,15,05,22.20
2007,07,12,15,06,22.10
2007,07,12,15,07,21.90
2007,07,12,15,08,21.90
2007,07,12,15,09,21.80
2007,07,12,15,10,21.80
2007,07,12,15,11,21.70
2007,07,12,15,12,21.70
2007,07,12,15,13,21.70
2007,07,12,15,14,21.70
2007,07,12,15,15,21.70
2007,07,12,15,16,21.80
2007,07,12,15,17,21.90
2007,07,12,15,18,22.00
2007,07,12,15,19,22.00
2007,07,12,15,20,22.10
2007,07,12,15,21,22.10
2007,07,12,15,22,22.10
2007,07,12,15,23,22.10
2007,07,12,15,24,22.10
2007,07,12,15,25,22.10
2007,07,12,15,26,22.00
2007,07,12,15,27,22.10
2007,07,12,15,28,22.10
2007,07,12,15,29,22.20
2007,07,12,15,30,22.30
2007,07,12,15,31,22.40
2007,07,12,15,32,22.50
2007,07,12,15,33,22.60
2007,07,12,15,34,22.60
2007,07,12,15,35,22.70
2007,07,12,15,36,22.70
2007,07,12,15,37,22.70
2007,07,12,15,38,22.70
2007,07,12,15,39,22.80
2007,07,12,15,40,22.80
2007,07,12,15,41,22.80
2007,07,12,15,42,22.80
2007,07,12,15,43,22.80
2007,07,12,15,44,22.80
2007,07,12,15,45,22.80
2007,07,12,15,46,22.80
2007,07,12,15,47,22.80
2007,07,12,15,48,22.70
2007,07,12,15,49,22.70
2007,07,12,15,50,22.70
2007,07,12,15,51,22.60
2007,07,12,15,52,22.60
2007,07,12,15,53,22.60
2007,07,12,15,54,22.50
2007,07,12,15,55,22.50
2007,07,12,15,56,22.50
2007,07,12,15,57,22.50
2007,07,12,15,58,22.60
2007,07,12,15,59,22.60
2007,07,12,16,00,22.60
2007,07,12,16,01,22.60
2007,07,12,16,02,22.50
2007,07,12,16,03,22.50
2007,07,12,16,04,22.40
2007,07,12,16,05,22.40
2007,07,12,16,06,22.40
2007,07,12,16,07,22.50
2007,07,12,16,08,22.50
2007,07,12,16,09,22.60
2007,07,12,16,10,22.70
2007,07,12,16,11,22.80
2007,07,12,16,12,22.80
2007,07,12,16,13,22.90
2007,07,12,16,14,23.00
2007,07,12,16,15,23.10
2007,07,12,16,16,23.10
2007,07,12,16,17,23.20
2007,07,12,16,18,23.20
2007,07,12,16,19,23.20
2007,07,12,16,20,23.20
2007,07,12,16,21,23.10
2007,07,12,16,22,23.10
2007,07,12,16,23,23.00
2007,07,12,16,24,23.00
2007,07,12,16,25,22.90
2007,07,12,16,26,22.90
2007,07,12,16,27,22.90
2007,07,12,16,28,23.00
2007,07,12,16,29,23.00
2007,07,12,16,30,23.10
2007,07,12,16,31,23.10
2007,07,12,16,32,23.10
2007,07,12,16,33,23.10
2007,07,12,16,34,23.20
2007,07,12,16,35,23.30
2007,07,12,16,36,23.30
2007,07,12,16,37,23.40
2007,07,12,16,38,23.40
2007,07,12,16,39,23.40
2007,07,12,16,40,23.40
2007,07,12,16,41,23.40
2007,07,12,16,42,23.30
2007,07,12,16,43,23.30
2007,07,12,16,44,23.20
2007,07,12,16,45,23.20
2007,07,12,16,46,23.20
2007,07,12,16,47,23.30
2007,07,12,16,48,23.30
2007,07,12,16,49,23.40
2007,07,12,16,50,23.50
2007,07,12,16,51,23.60
2007,07,12,16,52,23.70
2007,07,12,16,53,23.70
2007,07,12,16,54,23.70
2007,07,12,16,55,23.70
2007,07,12,16,56,23.70
2007,07,12,16,57,23.70
2007,07,12,16,58,23.60
2007,07,12,16,59,23.50
2007,07,12,17,00,23.40
2007,07,12,17,01,23.40
2007,07,12,17,02,23.40
2007,07,12,17,03,23.20
2007,07,12,17,04,23.10
2007,07,12,17,05,22.90
2007,07,12,17,06,22.80
2007,07,12,17,07,22.80
2007,07,12,17,08,22.90
2007,07,12,17,09,22.90
2007,07,12,17,10,23.00
2007,07,12,17,11,23.00
2007,07,12,17,12,23.10
2007,07,12,17,13,23.20
2007,07,12,17,14,23.30
2007,07,12,17,15,23.30
2007,07,12,17,16,23.30
2007,07,12,17,17,23.40
2007,07,12,17,18,23.40
2007,07,12,17,19,23.30